Regional Weather Roundup
Issued by NWS Sterling, VA

Home | Current Version | Previous Version | Graphics & Text | Print | Product List | Glossary On
Versions: 1 2 3 4 5 6 7 8 9 10 11 12 13 14 15 16 17 18 19 20 21 22 23 24 25 26 27 28 29 30 31 32 33 34 35 36 37 38 39 40 41 42 43 44 45 46 47 48 49 50
655
ASUS41 KLWX 282210
RWRLWX

REGIONAL WEATHER ROUNDUP
NATIONAL WEATHER SERVICE BALTIMORE MD/WASHINGTON DC
500 PM EST TUE FEB 28 2017

Note: "FAIR" indicates few or no clouds below 12,000 feet
with no significant weather and/or obstructions to visibility.
 TC=TEMPERATURE CELSIUS

 * =Non NWS site. Station does not report precipitation (e.g. rain,
    snow, etc.), thunder, or fog.

DCZ001-MDZ009-015-VAZ040>042-051-053>054-282300-
WASHINGTON METRO

CITY           SKY/WX    TMP DP  RH WIND       PRES   REMARKS
WASHINGTON NAT CLOUDY    65  51  60 W3        30.15R
DULLES         LGT RAIN  61  49  64 NW6       30.15R
ANDREWS AFB    PTSUNNY   64  50  60 CALM      30.12F
FT BELVOIR     CLOUDY    65  50  57 CALM      30.13S
QUANTICO       CLOUDY    61  50  67 CALM      30.13F
COLLEGE PARK*  CLOUDY    63  48  59 CALM      30.14R
LEESBURG*      RAIN      61  52  72 MISG      30.16R
MANASSAS*      CLOUDY    64  48  56 NW6       30.16R
GAITHERSBURG*  CLOUDY    63  45  51 S3        30.18S

$$

MDZ006>007-011-014-282300-
BALTIMORE METRO

CITY           SKY/WX    TMP DP  RH WIND       PRES   REMARKS
BWI AIRPORT    CLOUDY    62  51  67 CALM      30.13S
MD SCIENCE CTR   N/A     61  47  59 MISG      30.14F
MARTIN STATE   MOCLDY    61  54  77 CALM      30.15F
ANNAPOLIS      CLOUDY    57  50  77 SE6       30.13F
FORT MEADE*    CLOUDY    61  50  67 CALM      30.16S

$$

MDZ012-015-019>023-282300-
MARYLAND EASTERN SHORE

CITY           SKY/WX    TMP DP  RH WIND       PRES   REMARKS
OCEAN CITY     CLOUDY    53  48  83 VRB5      30.16F
SALISBURY      CLOUDY    65  55  70 S6        30.14F
BAY BRIDGE AP* CLOUDY    54  48  82 CALM      30.14F
CAMBRIDGE*     MOCLDY    64  54  68 CALM      30.14R
EASTON*        CLOUDY    64  52  63 S5        30.18F

$$

MDZ017>025-282300-
SOUTHERN MARYLAND

CITY           SKY/WX    TMP DP  RH WIND       PRES   REMARKS
PATUXENT RIVER CLOUDY    57  53  86 SE5       30.12F
ST INIGOES     PTSUNNY   64  54  69 SE6       30.11F
LEONARDTOWN*   CLOUDY    63  54  72 SE3       30.14S

$$

MDZ003>005-282300-
NORTH CENTRAL MARYLAND

CITY           SKY/WX    TMP DP  RH WIND       PRES   REMARKS
FREDERICK*     CLOUDY    57  52  82 S6        30.15F
HAGERSTOWN APT LGT RAIN  56  47  71 S14       30.12S
WESTMINSTER*   LGT RAIN  59  52  77 SE7       30.13F

$$

MDZ501>502-282300-
WESTERN MARYLAND

CITY           SKY/WX    TMP DP  RH WIND       PRES   REMARKS
OAKLAND*       CLOUDY    45  45 100 S14G21    30.06R
CUMBERLAND*      N/A     46  46 100 S3        30.14S

$$

VAZ025>031-282300-
SHENANDOAH VALLEY

CITY           SKY/WX    TMP DP  RH WIND       PRES   REMARKS
WINCHESTER*    LGT RAIN  50  45  81 SW3       30.15S
FRONT ROYAL*   CLOUDY    52  48  87 CALM      30.13F
LURAY*         RAIN      52  52 100 SE6       30.16F
NEW MARKET*    CLOUDY    51  46  85 W3        30.16F
STAUNTON*      RAIN      52  48  87 CALM      30.20F
WAYNESBORO*    CLOUDY    53  49  86 NW7       30.19R

$$

WVZ021-048>050-054>055-282300-
EASTERN WEST VIRGINIA PANHANDLE

CITY           SKY/WX    TMP DP  RH WIND       PRES   REMARKS
MARTINSBURG    LGT RAIN  53  49  86 S3        30.14R FOG
PETERSBURG*    LGT RAIN  54  49  85 SE8       30.12F

$$

VAZ036>039-050-282300-
CENTRAL FOOTHILLS

CITY           SKY/WX    TMP DP  RH WIND       PRES   REMARKS
CHARLOTTESVILL RAIN      61  53  75 NW7       30.17R
CULPEPER*      RAIN      64  48  57 NW8       30.18R
ORANGE*        LGT RAIN  63  52  67 W8        30.17R
GORDONSVILLE*  CLOUDY    65  52  61 NW8       30.15R
WARRENTON*     LGT RAIN  66  43  43 NW10      30.16R

$$

VAZ055>057-282300-
NORTH AND CENTRAL PIEDMONT

CITY           SKY/WX    TMP DP  RH WIND       PRES   REMARKS
FREDERICKSBRG* CLOUDY    69  53  57 SE3       30.10F
STAFFORD*      CLOUDY    67  50  54 CALM      30.15S

$$

NCZ024-NYZ072-PAZ021-071-VAZ022-071-282300-
OTHER REGIONAL OBSERVATIONS

CITY           SKY/WX    TMP DP  RH WIND       PRES   REMARKS
NEW YORK CITY  CLOUDY    53  50  89 S6        30.18F
PHILADELPHIA   CLOUDY    64  49  57 S8        30.14S
PITTSBURGH     CLOUDY    55  47  74 S9        30.00R
ROANOKE        LGT RAIN  58  53  84 CALM      30.20R
RICHMOND       CLOUDY    71  56  58 S13       30.11S
RALEIGH        CLOUDY    74  56  53 SW14      30.16S

$$

ANZ530>537-282300-
MARINE OBSERVATIONS

STATION/POSITION TIME  TEMP    WIND        PRES
                       AIR SEA DIR/SP/G
                 (UTC) (F)     (DEG/KT/KT) (MB)
THOMAS PT LIGHT  2200   51 45  160/  7/  7   N/A
BALT KEY BRIDGE  2148   58      40/  3/  4 1020.4F
COVE POINT       2142   53     170/  8/  8 1021.0F
LEWISETTA        2142   64 50  140/  8/  9 1019.1F
SOLOMONS ISLAND  2148           90/  7/  8   N/A
PINEY POINT      2148          120/  5/  7   N/A

$$





USA.gov is the U.S. government's official web portal to all federal, state and local government web resources and services.